Tracking 29040 objects as of 17-Jun-2024
HD Live streaming from Space Station
objects crossing your sky now

SKYKRAFT-3

Track SKYKRAFT-3 now!
10-day predictions


NORAD ID: 56229
Int'l Code: 2023-084BN
Perigee: 497.9 km
Apogee: 510.6 km
Inclination: 97.5 °
Period: 94.6 minutes
Semi major axis: 6875 km
RCS: Unknown
Launch date: June 12, 2023
Source: Australia (AUS)
Launch site: AIR FORCE WESTERN TEST RANGE (AFWTR)
Your satellite tracking list
Your tracking list is empty




NASA's NSSDC Master Catalog

Two Line Element Set (TLE):
1 56229U 23084BN  24168.57712477  .00013902  00000-0  59475-3 0  9990
2 56229  97.5413 287.6103 0009213  18.6300 341.5271 15.22901523 56054
Source of the keplerian elements: AFSPC